COSMOS 1275 DEB, 42113

Orbit data source: Space-Track

COSMOS 1275 DEB, 42113 is space debris in LEO originally from a launch on Thu, 04 Jun 1981 UTC launched from the Plesetsk Missile And Space Complex (PKMTR). Debris objects in space refer to the collection of defunct objects orbiting the Earth. Examples of debris include non-operational satellites, rocket bodies, and fragments generated from explosions, collisions, or faulty payload assembly.

Loading next visibility...
Identifier
42113, 1981-053PZ
Orbit
LEO
Country
Flag of CISCIS
Related business
Manufacturer
Unknown
Mission
Spacecraft
Bus & Motor
Unknown
Mass
Unknown
Launch date (UTC)
1981-06-04 (45 years ago)
Launch vehicle
Unknown
Launch site
Plesetsk Missile And Space Complex (PKMTR)
Object type
Payload
Rocket body
Debris
Shape & HBR
Unknown shape, 0.1 m
Radar Cross Section
Small (<0.1 m²)

Expand to show TLE details & history
Last TLE update: 11 hours ago

TLE from 11 hours ago
0 COSMOS 1275 DEB
1 42113U 81053PZ  26095.27994441  .00001477  00000-0  13701-2 0  9993
2 42113  82.7446 291.2507 0192265 169.2384   7.3848 13.73730467617980
Epoch: 2026-04-05T06:43Z
TLE epoch observation values (Epoch: 2026-04-05T06:43:07.197Z)
Latitude
2.96462°
Longitude
176.50731°
Altitude
848.369 km
Speed
7.499 km/s
True Right ascension
07h 23m 29s
True Declination
2° 56' 50"
Sunlit
Object was in daylight at epoch
Visualization orbit readout
Latitude
Unknown
Longitude
Unknown
Altitude
Unknown
Speed
Unknown
Apparent Right ascension
Unknown
Apparent Declination
Unknown
Sunlit
N/A
Visualization observer readout
Local Sidereal Time
23:28:01
Azimuth
Unknown
Elevation
Unknown
Doppler factor
Unknown
Orbital elements
Apogee altitude
1,124.901 km
Perigee altitude
841.829 km
Semi-major axis
7,361.502 km
Eccentricity
0.01923
Inclination
82.7446°
RAAN
291.2507°
Arg. of periapsis
169.2384°
True anomaly
7.67489°
Mean anomaly
7.3848°
Eccentric anomaly
7.52914°
Mean motion
3.43632 °/min
Orbital period
104.76 mins
BSTAR
0.0013701
Loading maneuver chart data...
Computing Atmospheric mass density...

Documentation

Showing up to 5 results
|